Tracking 28794 objects as of 19-Apr-2024
HD Live streaming from Space Station
objects crossing your sky now

COSMOS 839 DEB

Track COSMOS 839 DEB now!
10-day predictions


NORAD ID: 13516
Int'l Code: 1976-067BD
Perigee: 969.0 km
Apogee: 2,123.4 km
Inclination: 65.7 °
Period: 116.8 minutes
Semi major axis: 7917 km
RCS: 0.0172 m2 (small)
Launch date: July 8, 1976
Source: Commonwealth of Independent States (former USSR) (CIS)
Launch site: PLESETSK MISSILE AND SPACE COMPLEX (PKMTR)

Note: This is SATELLITE DEBRIS
Your satellite tracking list
Your tracking list is empty




NASA's NSSDC Master Catalog

Two Line Element Set (TLE):
1 13516U 76067BD  24110.38496622  .00000017  00000-0  24516-3 0  9999
2 13516  65.6596 109.8133 0729031  20.7762  42.1392 12.32386607426333
Source of the keplerian elements: AFSPC